SCP
0 0 0 0 0 0 0 0 0 0 0 0 0 0 0 0 0 -0 0 0 0 0 0 0 0 0 0 0 0 0 0 0 0 0 0 0 0 0 0 0 0 0 0 0 0 0 0 0 0 0 0 0 0 0
0 0 0 0 0 0 0 0 0 0 0 0 0 0 0 0 0 -0 0 0 0 0 0 0 0 0 0 0 0 0 0 0 0 0 0 0 0 0 0 0 0 0 0 0 0 0 0 0 0 0 0 0 0 0
0 0 0 0 0 0 0 0 0 0 0 0 0 0 0 0 0 0 0 0 0 0 0 0 0 0 0 0 0 0 0 0 0 0 0 0 0 0 0 0 0 0 0 0 0 0 0 0 0 0 0 0 0 0
0 0 0 0 0 0 0 0 0 0 0 0 0 0 0 0 0 0 0 0 0 0 0 0 0 0 0 0 0 0 0 0 0 0 0 0 0 0 0 0 0 0 0 0 0 0 0 0 0 0 0 0 0 0
0 0 0 0 0 0 0 0 0 0 0 0 0 0 0 0 0 0 0 0 0 0 0 0 0 0 0 0 0 0 0 0 0 0 0 0 0 0 0 0 0 0 0 0 0 0 0 0 0 0 0 0 0 0
0 0 0 0 0 0 0 0 0 0 0 0 0 0 0 0 0 0 0 0 0 0 0 0 0 0 0 0 0 0 0 0 0 0 0 0 0 0 0 0 0 0 0 0 0 0 0 0 0 0 0 0 0 0
0 0 0 0 0 0 0 0 0 0 0 0 0 0 0 0 0 0 0 0 0 0 0 0 0 0 0 0 0 0 0 0 0 0 0 0 0 0 0 0 0 0 0 0 0 0 0 0 0 0 0 0 0 0
0 0 0 0 0 0 0 0 0 0 0 0 0 0 0 0 0 0 0 0 0 0 0 0 0 0 0 0 0 0 0 0 0 0 0 0 0 0 0 0 0 0 0 0 0 0 0 0 0 0 0 0 0 0
0 0 0 0 0 0 0 0 0 0 0 0 0 0 0 0 0 0 0 0 0 0 0 0 0 0 0 0 0 0 0 0 0 0 0 0 0 0 0 0 0 0 0 0 0 0 0 0 0 0 0 0 0 0
0 0 0 0 0 0 0 0 0 0 0 0 0 0 0 0 0 0 0 0 0 0 0 0 0 0 0 0 0 0 0 0 0 0 0 0 0 0 0 0 0 0 0 0 0 0 0 0 0 0 0 0 0 0
0 0 0 0 0 0 0 0 0 0 0 0 0 0 0 0 0 0 0 0 0 0 0 0 0 0 0 0 0 0 0 0 0 0 0 0 0 0 0 0 0 0 0 0 0 0 0 0 0 0 0 0 0 0
0 0 0 0 0 0 0 0 0 0 0 0 0 0 0 0 0 0 0 0 0 0 0 0 0 0 0 0 0 0 0 0 0 0 0 0 0 0 0 0 0 0 0 0 0 0 0 0 0 0 0 0 0 0
-0 0 0 0 0 0 0 0 0 0 0 0 0 0 0 0 0 0 0 0 0 0 0 0 0 0 0 0 0 0 0 0 0 0 0 0 0 0 0 0 0 0 0 0 0 0 0 0 0 0 0 0 0 0
-0 -0 -0 0 0 0 0 0 0 0 0 0 0 0 0 0 0 0 0 0 0 0 0 0 0 0 0 0 0 0 0 0 0 0 0 0 0 0 0 0 0 0 0 0 0 0 0 0 0 0 0 0 0 0
0 0 -0 0 0 0 0 0 0 0 0 0 0 0 0 0 0 0 0 0 0 0 0 0 0 0 0 0 0 0 0 0 0 0 0 0 0 0 0 0 0 0 0 0 0 0 0 0 0 0 0 0 0 0
-0 0 -0 -0 0 0 0 0 0 0 0 0 0 0 0 0 0 0 0 0 0 0 0 0 0 0 0 0 0 0 0 0 0 0 0 0 0 0 0 0 0 0 0 0 0 0 0 0 0 0 0 0 0 0
-0 -0 -0 -0 0 0 -0 0 0 0 0 0 0 0 0 0 0 0 0 0 0 0 0 0 0 0 0 0 0 0 0 0 0 0 0 0 0 0 0 0 0 0 0 0 0 0 0 0 0 0 0 0 0 0
0 0 0 0 0 0 0 0 0 0 0 0 0 0 0 0 0 0 0 0 0 0 0 0 0 0 0 0 0 0 0 0 0 0 0 0 0 0 0 0 0 0 0 0 0 0 0 0 0 0 0 0 0 0
0 -0 0 -0 -0 -0 0 0 0 0 0 0 0 0 0 0 0 0 0 0 0 0 0 0 0 0 0 0 0 0 0 0 0 0 0 0 0 0 0 0 0 0 0 0 0 0 0 0 0 0 0 0 0 0
0 -0 0 -0 0 -0 -0 0 0 0 0 0 0 0 0 0 0 0 0 0 0 0 0 0 0 0 0 0 0 0 0 0 0 0 0 0 0 0 0 0 0 0 0 0 0 0 0 0 0 0 0 0 0 0
0 0 0 0 0 -0 0 0 0 0 0 0 0 0 0 0 0 0 0 0 0 0 0 0 0 0 0 0 0 0 0 0 0 0 0 0 0 0 0 0 0 0 0 0 0 0 0 0 0 0 0 0 0 0
0 0 0 0 0 0 -0 0 0 0 0 0 0 0 0 0 0 0 0 0 0 0 0 0 0 0 0 0 0 0 0 0 0 0 0 0 0 0 0 0 0 0 0 0 0 0 0 0 0 0 0 0 0 0
0 0 0 0 0 0 0 0 0 0 -0 0 0 -0 -0 0 0 0 0 0 0 0 0 0 0 0 0 0 0 0 0 0 0 0 0 0 0 0 0 0 0 0 0 0 0 0 0 0 0 0 0 0 0 0
0 0 0 0 0 0 0 -0 0 -0 0 0 0 0 -0 0 -0 0 0 0 0 0 0 0 0 0 0 0 0 0 0 0 0 0 0 0 0 0 0 0 0 0 0 0 0 0 0 0 0 0 0 0 0 0
0 0 0 0 0 0 -0 0 -0 0 -0 0 -0 -0 0 0 0 0 0 0 0 0 0 0 0 0 0 0 0 0 0 0 0 0 0 0 0 0 0 0 0 0 0 0 0 0 0 0 0 0 0 0 0 0
0 0 0 0 0 0 0 0 0 0 -0 -0 -0 -0 -0 -0 -0 0 0 0 0 0 0 0 0 0 0 0 0 0 0 0 0 0 0 0 0 0 0 0 0 0 0 0 0 0 0 0 0 0 0 0 0 0
0 0 0 0 0 0 0 0 0 0 0 0 -0 -0 -0 -0 0 0 -0 0 0 0 0 0 0 0 0 0 0 0 0 0 0 0 0 0 0 0 0 0 0 0 0 0 0 0 0 0 0 0 0 0 0 0
0 0 0 0 0 0 0 0 0 0 0 0 0 0 0 0 0 0 0 0 0 0 0 0 0 0 0 0 0 0 0 0 0 0 0 0 0 0 0 0 0 0 0 0 0 0 0 0 0 0 0 0 0 0
0 0 0 0 0 0 0 0 0 0 0 0 0 0 0 0 0 0 0 0 0 0 0 0 0 0 0 0 0 0 0 0 0 0 0 0 0 0 0 0 0 0 0 0 0 0 0 0 0 0 0 0 0 0
0 0 0 0 0 0 0 0 0 0 0 0 0 0 0 0 0 0 0 0 0 0 0 0 0 0 0 0 0 0 0 0 0 0 0 0 0 0 0 0 0 0 0 0 0 0 0 0 0 0 0 0 0 0
0 0 0 0 0 0 0 0 0 0 0 0 0 0 0 0 0 0 0 0 0 0 0 0 0 0 0 0 0 0 0 0 0 0 0 0 0 0 0 0 0 0 0 0 0 0 0 0 0 0 0 0 0 0
0 0 0 0 0 0 0 0 0 0 0 0 0 0 0 0 0 0 0 0 0 0 0 0 0 0 0 0 0 0 0 0 0 0 0 0 0 0 0 0 0 0 0 0 0 0 0 0 0 0 0 0 0 0
0 0 0 0 0 0 0 0 0 0 0 0 0 0 0 0 0 0 0 0 0 0 0 0 0 0 0 0 0 0 0 0 0 0 0 0 0 0 0 0 0 0 0 0 0 0 0 0 0 0 0 0 0 0
Wind_Speed_500mb
34 34 30 8 13 16 19 28 25 20 11 9 7 9 8 5 10 12 18 12 6 9 22 26 11 2 14 31 29 23 17 4 4 9 8 7 8 12 9 14 22 22 23 16 13 19 33 22 21 27 9 11 10 8
30 24 30 33 25 21 23 29 28 24 14 9 9 9 8 7 9 10 12 13 10 13 11 22 33 33 13 17 34 38 20 11 15 11 4 10 7 7 10 12 4 14 16 14 26 16 3 48 13 21 19 16 13 16
25 22 23 24 43 28 27 26 26 26 20 15 16 14 15 11 12 12 23 39 24 13 28 34 24 27 17 24 39 16 16 29 12 19 10 6 10 8 10 9 8 9 8 8 8 10 11 46 22 27 22 21 21 17
27 24 25 23 25 29 30 32 30 29 23 20 19 19 19 20 15 13 21 10 11 10 6 11 48 42 25 15 31 38 52 31 37 30 9 6 8 9 8 8 6 5 22 11 3 4 13 21 29 33 32 28 27 24
32 27 24 23 18 19 19 25 37 27 23 24 20 19 19 22 17 15 21 24 11 5 6 4 22 42 30 20 20 26 44 53 19 9 5 5 11 9 2 4 5 14 12 17 12 31 12 21 40 36 34 32 28 25
36 32 26 21 21 15 13 17 19 28 21 20 22 18 13 14 15 12 7 23 21 15 9 6 11 32 46 43 31 33 38 24 15 13 9 9 5 2 8 7 3 13 12 8 10 39 21 42 43 37 35 31 29 26
30 38 26 25 19 16 15 13 13 16 15 11 14 17 17 16 9 12 12 14 17 11 8 5 5 15 25 30 38 42 33 22 14 11 6 8 6 7 2 6 10 13 21 34 44 51 36 39 25 36 33 34 31 29
28 34 34 25 20 17 16 14 13 16 18 17 13 14 19 21 25 30 23 15 23 10 11 5 3 7 25 16 9 21 11 11 17 10 6 5 8 4 4 7 19 24 41 42 23 15 36 44 44 42 39 41 40 37
35 37 37 34 33 16 11 13 14 16 17 17 20 16 13 8 8 11 22 22 24 17 8 7 4 3 15 13 12 11 12 7 8 5 4 4 3 5 9 13 18 21 9 23 41 48 49 49 51 49 45 40 37 32
43 48 47 41 43 35 23 28 23 21 20 22 19 8 8 9 15 9 6 6 10 18 13 6 3 3 10 9 8 5 11 5 4 5 6 4 5 17 19 13 13 16 21 29 44 37 45 51 49 43 36 31 28 25
38 41 41 39 43 42 33 17 17 27 26 15 6 9 18 15 11 10 9 13 14 7 14 7 10 4 13 7 4 12 3 3 4 2 3 3 5 6 16 17 18 20 20 23 23 34 34 41 43 39 33 27 22 17
32 34 38 40 39 42 33 25 26 26 14 11 21 22 13 12 14 12 5 6 9 3 9 3 7 9 9 10 5 8 5 2 4 7 2 5 4 9 10 17 21 25 24 27 31 36 39 37 34 29 26 22 20 19
31 31 32 36 34 38 29 33 39 49 40 19 11 8 11 12 14 8 4 4 3 12 13 10 5 6 6 9 9 5 8 3 7 4 3 4 6 7 8 12 17 21 25 29 32 33 32 29 26 23 22 22 20 18
24 31 34 30 31 31 32 20 29 21 14 7 8 10 7 7 6 1 1 1 5 9 14 11 6 5 7 6 3 7 1 2 4 1 1 4 2 6 9 12 11 16 19 21 24 27 26 26 24 24 23 23 21 18
22 24 27 25 19 23 29 18 22 20 9 11 10 8 8 1 5 6 6 5 14 11 16 5 7 6 6 7 6 6 3 2 2 2 3 4 3 6 10 13 14 15 17 19 21 22 22 22 22 21 21 19 16 13
21 19 29 29 7 12 17 19 21 19 13 12 18 9 6 4 6 12 18 10 23 15 9 6 4 7 7 4 5 2 6 5 4 3 5 8 7 9 11 12 13 14 14 16 17 17 17 16 15 15 14 12 10 10
43 46 40 28 24 24 16 17 15 18 15 12 11 19 11 11 8 8 14 22 22 11 5 5 8 2 2 4 3 0 3 3 5 7 10 13 12 12 11 11 11 10 9 8 9 9 10 10 11 11 11 12 14 15
39 31 38 43 33 26 27 19 14 16 19 20 8 12 21 18 8 16 18 26 15 8 6 3 3 3 3 4 1 3 4 5 8 8 11 12 11 10 9 7 6 6 4 4 5 6 6 6 9 11 15 16 18 20
24 24 28 27 20 13 12 17 15 13 15 9 12 15 12 10 24 26 24 17 18 16 5 4 8 4 3 2 2 3 4 4 3 2 5 6 6 3 3 5 4 5 5 5 6 6 7 7 9 13 16 19 21 24
18 14 20 23 16 10 12 16 14 14 9 8 11 11 7 8 12 19 30 21 17 9 17 9 2 1 1 3 4 4 3 3 4 4 5 4 5 1 7 7 7 9 10 11 11 13 16 19 21 23 26 28 29 32
14 17 18 11 27 26 17 12 15 12 8 9 10 11 8 12 14 20 23 23 12 12 5 5 5 5 4 2 1 1 2 2 2 1 3 2 6 11 11 14 14 15 16 17 18 21 23 24 28 31 32 35 38 38
21 20 17 22 16 14 18 22 10 7 6 6 8 12 12 9 16 20 23 20 10 8 6 7 8 8 8 6 4 5 5 5 6 8 11 13 12 16 17 20 21 21 22 25 24 24 27 32 32 34 35 35 38 39
12 15 18 20 12 15 8 13 7 13 7 12 6 8 7 9 18 17 9 8 5 9 8 8 8 9 7 5 5 6 7 7 9 11 13 15 15 17 18 17 22 21 20 19 24 24 25 28 31 33 35 36 38 37
19 15 18 16 25 7 9 13 11 10 8 8 6 5 8 12 21 8 3 3 5 8 8 9 9 9 7 7 7 8 10 11 13 15 20 19 19 17 26 25 28 29 30 28 29 31 33 34 36 36 38 39 40 42
11 27 17 17 18 14 14 12 14 12 6 7 6 7 8 15 5 5 2 3 7 8 8 9 10 11 11 9 9 11 12 15 17 16 17 25 26 25 24 28 30 32 35 36 34 35 35 39 40 42 42 44 46 46
16 25 15 13 14 10 4 7 7 5 3 8 3 10 8 5 6 4 5 7 10 10 9 11 11 10 11 14 14 15 17 20 22 23 22 25 28 32 34 35 30 22 31 33 34 35 34 36 39 41 42 41 43 47
12 8 13 17 9 6 6 4 3 2 5 4 5 10 6 6 5 6 6 6 9 11 11 16 17 16 17 16 19 23 24 25 26 28 27 29 31 35 38 39 38 31 33 33 35 37 39 39 42 44 47 46 46 48
9 13 2 13 5 5 6 2 2 2 4 2 4 3 5 10 7 5 6 11 11 12 13 16 17 18 18 18 18 20 23 26 29 32 33 30 24 30 31 32 33 33 36 37 41 44 46 48 50 52 55 57 56 54
5 16 12 4 4 4 3 4 3 2 4 3 3 5 8 9 11 15 19 18 19 23 23 24 25 29 27 25 25 27 29 32 36 40 40 39 34 31 35 37 39 41 44 49 50 54 55 57 60 62 64 68 67 66
6 17 4 3 1 4 3 4 6 16 22 17 13 14 17 18 18 21 20 21 24 25 27 28 28 29 27 27 27 25 26 32 35 37 43 46 47 46 46 46 48 50 53 58 61 62 61 65 67 70 74 77 78 80
10 8 4 4 7 6 10 24 32 26 19 16 22 29 27 23 24 12 7 7 11 19 26 27 27 28 28 26 30 36 38 31 37 41 45 51 52 53 53 54 56 58 60 64 67 69 70 72 74 75 75 76 75 76
7 2 6 4 4 10 18 9 12 7 8 7 8 9 11 11 11 9 11 4 8 25 31 28 26 20 24 29 33 38 42 46 47 47 49 55 59 60 62 64 65 67 68 69 69 69 69 71 72 73 76 76 76 75
5 4 5 7 7 5 8 17 4 8 10 7 6 7 8 10 14 12 17 19 14 15 31 42 37 30 31 36 41 43 48 49 49 52 55 59 62 64 65 63 62 62 64 65 65 67 68 70 73 74 75 77 78 76
Wind_Direction_500mb
28 29 54 126 146 142 157 161 153 150 152 127 103 90 108 103 69 47 52 41 103 103 42 45 27 12 159 156 146 163 121 314 42 110 123 159 129 193 125 149 166 165 181 197 200 224 242 172 161 188 172 146 168 161
26 39 25 45 106 154 149 153 153 148 145 127 109 108 115 143 127 70 67 76 52 84 61 47 58 56 113 150 143 164 164 165 157 109 120 120 119 161 137 173 139 196 189 181 194 207 131 173 179 177 158 164 177 166
37 55 36 39 70 121 132 140 152 147 141 122 103 113 100 91 89 69 95 103 85 77 54 45 11 55 101 159 163 159 166 162 117 120 137 121 124 145 161 202 116 213 177 189 146 201 172 182 177 178 166 169 164 168
47 52 59 49 60 80 123 126 131 134 125 111 100 103 104 80 96 86 115 80 52 78 80 26 45 42 67 156 173 176 174 154 134 135 85 117 123 210 189 132 167 132 150 151 118 93 108 192 193 180 168 162 155 154
50 57 63 66 69 83 66 103 124 122 111 103 100 96 100 101 95 87 86 63 51 71 121 45 38 45 66 110 177 144 148 137 119 85 77 110 118 132 44 76 186 187 162 186 209 179 159 181 182 172 165 158 156 158
47 51 68 72 83 93 90 81 71 102 95 87 91 94 88 92 93 91 63 51 61 77 95 64 22 26 61 90 137 159 143 131 98 77 74 89 113 140 149 196 78 161 172 164 163 151 148 151 162 165 162 158 160 157
51 49 57 74 84 94 117 123 130 126 126 105 87 82 70 60 85 79 87 25 37 50 79 86 31 11 25 45 56 62 92 80 85 87 76 118 119 91 87 141 134 150 130 128 137 131 109 134 150 160 164 155 153 149
59 56 47 66 85 88 106 127 140 129 131 131 114 91 81 79 84 76 80 52 30 54 61 93 27 24 14 18 40 30 68 61 43 93 89 84 83 48 100 23 108 118 127 128 130 129 144 138 141 144 146 142 137 131
65 66 55 53 58 76 110 106 139 144 135 139 126 121 100 90 61 80 69 75 38 54 99 60 59 71 10 29 36 46 43 64 42 57 47 50 122 75 11 359 53 48 72 124 125 128 136 137 137 140 144 146 145 138
55 60 60 51 51 58 106 117 126 147 134 133 127 59 64 68 77 60 46 49 39 29 44 78 20 56 22 21 43 33 36 45 66 42 328 66 83 89 36 43 61 58 105 138 132 125 139 139 146 147 148 146 143 143
56 52 49 50 47 46 58 94 139 139 138 133 57 56 98 50 34 41 52 41 348 46 19 38 44 51 33 57 75 24 86 6 90 53 358 75 108 73 14 46 65 79 95 122 134 144 150 150 147 146 144 143 145 148
56 50 45 39 50 49 49 60 139 142 134 127 108 92 41 31 32 59 16 345 36 36 351 17 29 49 38 47 73 22 80 15 98 336 98 128 87 7 27 54 75 93 109 117 126 133 139 146 147 148 148 150 151 152
59 46 35 35 38 48 51 81 101 120 118 91 67 60 7 353 46 69 1 355 29 348 357 9 55 47 62 47 65 46 58 45 307 28 77 70 85 27 47 73 81 96 107 118 126 130 136 145 149 151 150 149 147 144
43 35 26 36 43 52 60 96 52 77 76 72 50 44 44 5 38 72 6 347 350 334 352 1 41 47 29 57 30 78 1 340 61 102 225 92 44 36 65 86 108 104 115 122 129 132 137 142 146 146 147 148 146 146
6 1 353 353 34 61 57 79 37 114 65 68 43 56 46 357 27 1 335 12 10 357 12 11 45 48 24 81 33 119 89 98 212 188 46 112 102 101 92 98 104 112 121 127 128 128 136 141 143 150 152 157 161 165
1 349 353 336 320 121 69 49 56 64 66 61 50 91 38 78 15 20 18 15 11 15 25 27 62 58 45 86 59 120 122 185 118 101 164 153 132 109 106 102 102 104 112 121 126 129 134 145 157 167 172 182 199 225
60 46 28 40 109 118 95 64 41 49 53 54 52 44 67 67 62 27 14 2 5 17 39 12 48 331 324 52 67 355 81 46 112 123 141 150 141 125 114 106 105 105 106 117 135 148 152 168 189 210 229 245 253 260
57 47 54 67 71 75 54 50 65 60 60 46 70 28 52 53 40 38 18 17 23 54 22 78 147 74 103 136 351 77 80 109 135 135 141 137 130 110 93 95 93 98 120 160 191 203 207 226 238 249 261 268 275 278
37 31 23 20 34 30 36 40 45 84 61 59 55 39 45 54 46 39 27 32 53 53 73 27 69 57 77 51 43 68 79 77 121 173 193 212 230 225 9 7 3 350 337 320 310 295 285 278 272 274 277 279 279 279
32 13 358 15 12 61 65 37 47 76 67 48 39 26 45 31 17 28 31 36 40 44 42 39 60 328 56 66 60 50 53 48 33 88 115 102 138 219 310 317 318 313 308 302 306 309 311 313 311 309 307 305 305 302
9 19 32 66 53 60 67 47 53 55 59 63 18 29 29 22 26 25 17 18 50 42 53 61 44 34 11 354 8 194 232 264 268 226 230 244 282 297 294 295 293 297 293 294 297 296 294 290 290 291 293 295 294 294
40 44 52 52 63 68 61 36 59 49 46 51 33 24 35 22 4 4 356 32 56 42 37 12 3 2 353 344 314 284 276 274 278 282 283 284 280 279 279 286 288 286 287 289 292 291 291 292 294 295 295 293 292 293
47 45 47 35 69 50 41 25 48 26 58 357 15 39 18 5 358 354 59 49 54 14 5 359 356 355 354 349 339 328 318 310 309 308 303 299 302 304 304 307 304 303 298 297 299 300 299 296 297 297 296 297 296 295
50 49 31 39 28 32 8 33 33 28 47 28 24 17 348 332 345 46 62 336 0 352 349 350 350 346 339 335 326 322 317 310 305 306 302 302 303 301 299 302 300 301 298 293 292 293 291 290 289 289 289 289 290 292
59 14 26 10 16 26 27 7 356 26 36 340 20 358 348 342 23 32 264 295 340 345 347 350 350 349 347 347 333 323 313 308 306 305 299 298 301 301 298 297 299 300 294 294 295 291 292 290 288 288 290 291 293 292
65 17 36 360 1 38 350 25 14 349 358 354 334 322 338 31 39 299 253 327 342 341 341 340 338 337 334 328 323 314 314 316 316 316 313 309 309 309 309 308 306 307 300 300 300 298 296 294 292 292 291 292 293 295
51 345 14 23 13 18 54 50 35 60 22 360 316 349 16 37 280 264 303 324 328 332 334 336 329 323 322 322 320 319 319 318 316 313 311 308 305 302 301 303 306 306 298 298 296 296 294 294 294 294 295 295 296 296
76 24 45 336 354 23 135 59 40 358 256 274 317 343 172 195 241 307 311 333 339 328 316 318 321 318 315 315 313 313 311 312 313 313 312 314 309 310 306 304 303 300 299 299 299 298 298 298 297 296 296 296 296 296
37 356 353 343 314 274 263 192 242 278 316 271 179 269 264 257 277 294 291 294 314 323 323 317 314 312 311 307 313 310 310 310 311 312 312 311 314 312 308 306 303 301 300 298 297 298 299 297 296 295 295 294 295 295
350 350 10 326 351 258 236 259 290 304 292 267 267 279 279 286 310 303 286 276 290 301 303 304 304 304 302 294 306 304 304 306 306 305 306 308 310 310 309 307 304 301 298 296 297 296 293 292 292 290 291 292 292 293
336 351 322 259 256 265 290 303 303 297 280 264 256 252 269 295 301 279 249 299 322 322 314 307 296 293 292 291 300 308 312 313 307 305 304 302 304 304 304 302 299 297 295 294 293 293 293 292 291 291 290 290 291 292
309 311 325 299 268 299 318 330 305 285 275 264 261 260 282 277 275 248 220 250 10 16 4 343 324 317 296 303 305 307 309 311 309 307 304 304 304 305 304 301 300 298 297 296 294 293 292 291 290 290 291 293 294 294
279 288 277 282 292 292 326 337 306 299 260 265 265 270 257 258 256 243 241 241 262 318 352 354 339 316 310 310 312 311 310 307 305 304 304 303 303 303 301 301 301 300 298 297 295 295 294 294 294 295 295 294 295 295
Wind_Speed_850mb
34 34 30 8 13 16 19 28 25 20 11 9 7 9 8 5 10 12 18 12 6 9 22 26 11 2 14 31 29 23 17 4 4 9 8 7 8 12 9 14 22 22 23 16 13 19 33 22 21 27 9 11 10 8
30 24 30 33 25 21 23 29 28 24 14 9 9 9 8 7 9 10 12 13 10 13 11 22 33 33 13 17 34 38 20 11 15 11 4 10 7 7 10 12 4 14 16 14 26 16 3 48 13 21 19 16 13 16
25 22 23 24 43 28 27 26 26 26 20 15 16 14 15 11 12 12 23 39 24 13 28 34 24 27 17 24 39 16 16 29 12 19 10 6 10 8 10 9 8 9 8 8 8 10 11 46 22 27 22 21 21 17
27 24 25 23 25 29 30 32 30 29 23 20 19 19 19 20 15 13 21 10 11 10 6 11 48 42 25 15 31 38 52 31 37 30 9 6 8 9 8 8 6 5 22 11 3 4 13 21 29 33 32 28 27 24
32 27 24 23 18 19 19 25 37 27 23 24 20 19 19 22 17 15 21 24 11 5 6 4 22 42 30 20 20 26 44 53 19 9 5 5 11 9 2 4 5 14 12 17 12 31 12 21 40 36 34 32 28 25
36 32 26 21 21 15 13 17 19 28 21 20 22 18 13 14 15 12 7 23 21 15 9 6 11 32 46 43 31 33 38 24 15 13 9 9 5 2 8 7 3 13 12 8 10 39 21 42 43 37 35 31 29 26
30 38 26 25 19 16 15 13 13 16 15 11 14 17 17 16 9 12 12 14 17 11 8 5 5 15 25 30 38 42 33 22 14 11 6 8 6 7 2 6 10 13 21 34 44 51 36 39 25 36 33 34 31 29
28 34 34 25 20 17 16 14 13 16 18 17 13 14 19 21 25 30 23 15 23 10 11 5 3 7 25 16 9 21 11 11 17 10 6 5 8 4 4 7 19 24 41 42 23 15 36 44 44 42 39 41 40 37
35 37 37 34 33 16 11 13 14 16 17 17 20 16 13 8 8 11 22 22 24 17 8 7 4 3 15 13 12 11 12 7 8 5 4 4 3 5 9 13 18 21 9 23 41 48 49 49 51 49 45 40 37 32
43 48 47 41 43 35 23 28 23 21 20 22 19 8 8 9 15 9 6 6 10 18 13 6 3 3 10 9 8 5 11 5 4 5 6 4 5 17 19 13 13 16 21 29 44 37 45 51 49 43 36 31 28 25
38 41 41 39 43 42 33 17 17 27 26 15 6 9 18 15 11 10 9 13 14 7 14 7 10 4 13 7 4 12 3 3 4 2 3 3 5 6 16 17 18 20 20 23 23 34 34 41 43 39 33 27 22 17
32 34 38 40 39 42 33 25 26 26 14 11 21 22 13 12 14 12 5 6 9 3 9 3 7 9 9 10 5 8 5 2 4 7 2 5 4 9 10 17 21 25 24 27 31 36 39 37 34 29 26 22 20 19
31 31 32 36 34 38 29 33 39 49 40 19 11 8 11 12 14 8 4 4 3 12 13 10 5 6 6 9 9 5 8 3 7 4 3 4 6 7 8 12 17 21 25 29 32 33 32 29 26 23 22 22 20 18
24 31 34 30 31 31 32 20 29 21 14 7 8 10 7 7 6 1 1 1 5 9 14 11 6 5 7 6 3 7 1 2 4 1 1 4 2 6 9 12 11 16 19 21 24 27 26 26 24 24 23 23 21 18
22 24 27 25 19 23 29 18 22 20 9 11 10 8 8 1 5 6 6 5 14 11 16 5 7 6 6 7 6 6 3 2 2 2 3 4 3 6 10 13 14 15 17 19 21 22 22 22 22 21 21 19 16 13
21 19 29 29 7 12 17 19 21 19 13 12 18 9 6 4 6 12 18 10 23 15 9 6 4 7 7 4 5 2 6 5 4 3 5 8 7 9 11 12 13 14 14 16 17 17 17 16 15 15 14 12 10 10
43 46 40 28 24 24 16 17 15 18 15 12 11 19 11 11 8 8 14 22 22 11 5 5 8 2 2 4 3 0 3 3 5 7 10 13 12 12 11 11 11 10 9 8 9 9 10 10 11 11 11 12 14 15
39 31 38 43 33 26 27 19 14 16 19 20 8 12 21 18 8 16 18 26 15 8 6 3 3 3 3 4 1 3 4 5 8 8 11 12 11 10 9 7 6 6 4 4 5 6 6 6 9 11 15 16 18 20
24 24 28 27 20 13 12 17 15 13 15 9 12 15 12 10 24 26 24 17 18 16 5 4 8 4 3 2 2 3 4 4 3 2 5 6 6 3 3 5 4 5 5 5 6 6 7 7 9 13 16 19 21 24
18 14 20 23 16 10 12 16 14 14 9 8 11 11 7 8 12 19 30 21 17 9 17 9 2 1 1 3 4 4 3 3 4 4 5 4 5 1 7 7 7 9 10 11 11 13 16 19 21 23 26 28 29 32
14 17 18 11 27 26 17 12 15 12 8 9 10 11 8 12 14 20 23 23 12 12 5 5 5 5 4 2 1 1 2 2 2 1 3 2 6 11 11 14 14 15 16 17 18 21 23 24 28 31 32 35 38 38
21 20 17 22 16 14 18 22 10 7 6 6 8 12 12 9 16 20 23 20 10 8 6 7 8 8 8 6 4 5 5 5 6 8 11 13 12 16 17 20 21 21 22 25 24 24 27 32 32 34 35 35 38 39
12 15 18 20 12 15 8 13 7 13 7 12 6 8 7 9 18 17 9 8 5 9 8 8 8 9 7 5 5 6 7 7 9 11 13 15 15 17 18 17 22 21 20 19 24 24 25 28 31 33 35 36 38 37
19 15 18 16 25 7 9 13 11 10 8 8 6 5 8 12 21 8 3 3 5 8 8 9 9 9 7 7 7 8 10 11 13 15 20 19 19 17 26 25 28 29 30 28 29 31 33 34 36 36 38 39 40 42
11 27 17 17 18 14 14 12 14 12 6 7 6 7 8 15 5 5 2 3 7 8 8 9 10 11 11 9 9 11 12 15 17 16 17 25 26 25 24 28 30 32 35 36 34 35 35 39 40 42 42 44 46 46
16 25 15 13 14 10 4 7 7 5 3 8 3 10 8 5 6 4 5 7 10 10 9 11 11 10 11 14 14 15 17 20 22 23 22 25 28 32 34 35 30 22 31 33 34 35 34 36 39 41 42 41 43 47
12 8 13 17 9 6 6 4 3 2 5 4 5 10 6 6 5 6 6 6 9 11 11 16 17 16 17 16 19 23 24 25 26 28 27 29 31 35 38 39 38 31 33 33 35 37 39 39 42 44 47 46 46 48
9 13 2 13 5 5 6 2 2 2 4 2 4 3 5 10 7 5 6 11 11 12 13 16 17 18 18 18 18 20 23 26 29 32 33 30 24 30 31 32 33 33 36 37 41 44 46 48 50 52 55 57 56 54
5 16 12 4 4 4 3 4 3 2 4 3 3 5 8 9 11 15 19 18 19 23 23 24 25 29 27 25 25 27 29 32 36 40 40 39 34 31 35 37 39 41 44 49 50 54 55 57 60 62 64 68 67 66
6 17 4 3 1 4 3 4 6 16 22 17 13 14 17 18 18 21 20 21 24 25 27 28 28 29 27 27 27 25 26 32 35 37 43 46 47 46 46 46 48 50 53 58 61 62 61 65 67 70 74 77 78 80
10 8 4 4 7 6 10 24 32 26 19 16 22 29 27 23 24 12 7 7 11 19 26 27 27 28 28 26 30 36 38 31 37 41 45 51 52 53 53 54 56 58 60 64 67 69 70 72 74 75 75 76 75 76
7 2 6 4 4 10 18 9 12 7 8 7 8 9 11 11 11 9 11 4 8 25 31 28 26 20 24 29 33 38 42 46 47 47 49 55 59 60 62 64 65 67 68 69 69 69 69 71 72 73 76 76 76 75
5 4 5 7 7 5 8 17 4 8 10 7 6 7 8 10 14 12 17 19 14 15 31 42 37 30 31 36 41 43 48 49 49 52 55 59 62 64 65 63 62 62 64 65 65 67 68 70 73 74 75 77 78 76
Wind_Direction_850mb
28 29 54 126 146 142 157 161 153 150 152 127 103 90 108 103 69 47 52 41 103 103 42 45 27 12 159 156 146 163 121 314 42 110 123 159 129 193 125 149 166 165 181 197 200 224 242 172 161 188 172 146 168 161
26 39 25 45 106 154 149 153 153 148 145 127 109 108 115 143 127 70 67 76 52 84 61 47 58 56 113 150 143 164 164 165 157 109 120 120 119 161 137 173 139 196 189 181 194 207 131 173 179 177 158 164 177 166
37 55 36 39 70 121 132 140 152 147 141 122 103 113 100 91 89 69 95 103 85 77 54 45 11 55 101 159 163 159 166 162 117 120 137 121 124 145 161 202 116 213 177 189 146 201 172 182 177 178 166 169 164 168
47 52 59 49 60 80 123 126 131 134 125 111 100 103 104 80 96 86 115 80 52 78 80 26 45 42 67 156 173 176 174 154 134 135 85 117 123 210 189 132 167 132 150 151 118 93 108 192 193 180 168 162 155 154
50 57 63 66 69 83 66 103 124 122 111 103 100 96 100 101 95 87 86 63 51 71 121 45 38 45 66 110 177 144 148 137 119 85 77 110 118 132 44 76 186 187 162 186 209 179 159 181 182 172 165 158 156 158
47 51 68 72 83 93 90 81 71 102 95 87 91 94 88 92 93 91 63 51 61 77 95 64 22 26 61 90 137 159 143 131 98 77 74 89 113 140 149 196 78 161 172 164 163 151 148 151 162 165 162 158 160 157
51 49 57 74 84 94 117 123 130 126 126 105 87 82 70 60 85 79 87 25 37 50 79 86 31 11 25 45 56 62 92 80 85 87 76 118 119 91 87 141 134 150 130 128 137 131 109 134 150 160 164 155 153 149
59 56 47 66 85 88 106 127 140 129 131 131 114 91 81 79 84 76 80 52 30 54 61 93 27 24 14 18 40 30 68 61 43 93 89 84 83 48 100 23 108 118 127 128 130 129 144 138 141 144 146 142 137 131
65 66 55 53 58 76 110 106 139 144 135 139 126 121 100 90 61 80 69 75 38 54 99 60 59 71 10 29 36 46 43 64 42 57 47 50 122 75 11 359 53 48 72 124 125 128 136 137 137 140 144 146 145 138
55 60 60 51 51 58 106 117 126 147 134 133 127 59 64 68 77 60 46 49 39 29 44 78 20 56 22 21 43 33 36 45 66 42 328 66 83 89 36 43 61 58 105 138 132 125 139 139 146 147 148 146 143 143
56 52 49 50 47 46 58 94 139 139 138 133 57 56 98 50 34 41 52 41 348 46 19 38 44 51 33 57 75 24 86 6 90 53 358 75 108 73 14 46 65 79 95 122 134 144 150 150 147 146 144 143 145 148
56 50 45 39 50 49 49 60 139 142 134 127 108 92 41 31 32 59 16 345 36 36 351 17 29 49 38 47 73 22 80 15 98 336 98 128 87 7 27 54 75 93 109 117 126 133 139 146 147 148 148 150 151 152
59 46 35 35 38 48 51 81 101 120 118 91 67 60 7 353 46 69 1 355 29 348 357 9 55 47 62 47 65 46 58 45 307 28 77 70 85 27 47 73 81 96 107 118 126 130 136 145 149 151 150 149 147 144
43 35 26 36 43 52 60 96 52 77 76 72 50 44 44 5 38 72 6 347 350 334 352 1 41 47 29 57 30 78 1 340 61 102 225 92 44 36 65 86 108 104 115 122 129 132 137 142 146 146 147 148 146 146
6 1 353 353 34 61 57 79 37 114 65 68 43 56 46 357 27 1 335 12 10 357 12 11 45 48 24 81 33 119 89 98 212 188 46 112 102 101 92 98 104 112 121 127 128 128 136 141 143 150 152 157 161 165
1 349 353 336 320 121 69 49 56 64 66 61 50 91 38 78 15 20 18 15 11 15 25 27 62 58 45 86 59 120 122 185 118 101 164 153 132 109 106 102 102 104 112 121 126 129 134 145 157 167 172 182 199 225
60 46 28 40 109 118 95 64 41 49 53 54 52 44 67 67 62 27 14 2 5 17 39 12 48 331 324 52 67 355 81 46 112 123 141 150 141 125 114 106 105 105 106 117 135 148 152 168 189 210 229 245 253 260
57 47 54 67 71 75 54 50 65 60 60 46 70 28 52 53 40 38 18 17 23 54 22 78 147 74 103 136 351 77 80 109 135 135 141 137 130 110 93 95 93 98 120 160 191 203 207 226 238 249 261 268 275 278
37 31 23 20 34 30 36 40 45 84 61 59 55 39 45 54 46 39 27 32 53 53 73 27 69 57 77 51 43 68 79 77 121 173 193 212 230 225 9 7 3 350 337 320 310 295 285 278 272 274 277 279 279 279
32 13 358 15 12 61 65 37 47 76 67 48 39 26 45 31 17 28 31 36 40 44 42 39 60 328 56 66 60 50 53 48 33 88 115 102 138 219 310 317 318 313 308 302 306 309 311 313 311 309 307 305 305 302
9 19 32 66 53 60 67 47 53 55 59 63 18 29 29 22 26 25 17 18 50 42 53 61 44 34 11 354 8 194 232 264 268 226 230 244 282 297 294 295 293 297 293 294 297 296 294 290 290 291 293 295 294 294
40 44 52 52 63 68 61 36 59 49 46 51 33 24 35 22 4 4 356 32 56 42 37 12 3 2 353 344 314 284 276 274 278 282 283 284 280 279 279 286 288 286 287 289 292 291 291 292 294 295 295 293 292 293
47 45 47 35 69 50 41 25 48 26 58 357 15 39 18 5 358 354 59 49 54 14 5 359 356 355 354 349 339 328 318 310 309 308 303 299 302 304 304 307 304 303 298 297 299 300 299 296 297 297 296 297 296 295
50 49 31 39 28 32 8 33 33 28 47 28 24 17 348 332 345 46 62 336 0 352 349 350 350 346 339 335 326 322 317 310 305 306 302 302 303 301 299 302 300 301 298 293 292 293 291 290 289 289 289 289 290 292
59 14 26 10 16 26 27 7 356 26 36 340 20 358 348 342 23 32 264 295 340 345 347 350 350 349 347 347 333 323 313 308 306 305 299 298 301 301 298 297 299 300 294 294 295 291 292 290 288 288 290 291 293 292
65 17 36 360 1 38 350 25 14 349 358 354 334 322 338 31 39 299 253 327 342 341 341 340 338 337 334 328 323 314 314 316 316 316 313 309 309 309 309 308 306 307 300 300 300 298 296 294 292 292 291 292 293 295
51 345 14 23 13 18 54 50 35 60 22 360 316 349 16 37 280 264 303 324 328 332 334 336 329 323 322 322 320 319 319 318 316 313 311 308 305 302 301 303 306 306 298 298 296 296 294 294 294 294 295 295 296 296
76 24 45 336 354 23 135 59 40 358 256 274 317 343 172 195 241 307 311 333 339 328 316 318 321 318 315 315 313 313 311 312 313 313 312 314 309 310 306 304 303 300 299 299 299 298 298 298 297 296 296 296 296 296
37 356 353 343 314 274 263 192 242 278 316 271 179 269 264 257 277 294 291 294 314 323 323 317 314 312 311 307 313 310 310 310 311 312 312 311 314 312 308 306 303 301 300 298 297 298 299 297 296 295 295 294 295 295
350 350 10 326 351 258 236 259 290 304 292 267 267 279 279 286 310 303 286 276 290 301 303 304 304 304 302 294 306 304 304 306 306 305 306 308 310 310 309 307 304 301 298 296 297 296 293 292 292 290 291 292 292 293
336 351 322 259 256 265 290 303 303 297 280 264 256 252 269 295 301 279 249 299 322 322 314 307 296 293 292 291 300 308 312 313 307 305 304 302 304 304 304 302 299 297 295 294 293 293 293 292 291 291 290 290 291 292
309 311 325 299 268 299 318 330 305 285 275 264 261 260 282 277 275 248 220 250 10 16 4 343 324 317 296 303 305 307 309 311 309 307 304 304 304 305 304 301 300 298 297 296 294 293 292 291 290 290 291 293 294 294
279 288 277 282 292 292 326 337 306 299 260 265 265 270 257 258 256 243 241 241 262 318 352 354 339 316 310 310 312 311 310 307 305 304 304 303 303 303 301 301 301 300 298 297 295 295 294 294 294 295 295 294 295 295